Location: Altenhof
(50.2418°N, 10.8789°E)
Time: 04:59:36
(UTC+00:00)

ADEOS Rocket - Pass Details

Date: 18 February 2020
Orbit: 859 x 1306 km, 98.7° (Epoch: 30 March)

Event Time Altitude Azimuth Distance (km) Brightness Sun altitude
Rises 05:31:53 0° 177° (S) 3,646 6.1 -8.8°
Reaches altitude 10° 05:34:16 10° 181° (S) 2,757 5.5 -8.5°
Maximum altitude 05:40:25 59° 260° (W) 1,232 3.3 -7.5°
Drops below altitude 10° 05:47:19 10° 340° (NNW) 3,085 5.3 -6.4°
Sets 05:50:08 0° 344° (NNW) 4,112 6.0 -6.0°
